period_start,C,m1,H,J0,J1,J2,J3,J4,J5,JA,JB,JC,JD,JJ,JK,JN,#
2018-09-12 00:03:27,0.00,0.04,0.00,18.57,22.02,24.95,14.26,46.59,1023.45,2048.00,3347.00,2952.00,3424.27,600.01,609.16,4.20,0000 0000 0000 0000 000000
2018-09-12 00:08:29,0.00,0.04,0.00,18.60,22.04,24.90,14.17,46.68,1023.47,2048.00,3346.98,2951.95,3424.01,599.75,608.86,4.25,0000 0000 0000 0000 000000
2018-09-12 00:13:30,0.02,0.04,0.00,18.64,22.06,24.95,14.15,46.61,1023.47,2048.00,3346.60,2951.58,3424.00,600.03,608.99,4.30,0000 0000 0000 0000 000000
2018-09-12 00:18:32,0.01,0.04,0.00,18.66,22.08,24.93,14.27,46.71,1023.48,2047.99,3346.07,2951.12,3423.91,599.99,608.86,4.35,0000 0000 0000 0000 000000
2018-09-12 00:23:33,0.03,0.05,0.00,18.67,22.09,24.99,14.24,46.77,1023.49,2047.97,3345.13,2950.80,3423.05,599.89,608.79,4.40,0000 0000 0000 0000 000000
2018-09-12 00:28:34,0.02,0.05,0.00,18.70,22.12,24.96,14.23,46.67,1023.50,2047.94,3344.91,2950.22,3422.43,599.99,608.81,4.46,0000 0000 0000 0000 000000
2018-09-12 00:33:36,0.01,0.05,0.00,18.72,22.13,24.96,14.24,46.63,1023.50,2047.78,3344.22,2950.01,3422.02,600.03,608.91,4.51,0000 0000 0000 0000 000000
2018-09-12 00:38:37,-0.01,0.05,0.00,18.75,22.15,25.02,14.17,46.56,1023.48,2047.59,3343.50,2949.92,3421.77,599.76,608.63,4.56,0000 0000 0000 0000 000000
2018-09-12 00:43:39,0.00,0.05,0.00,18.77,22.17,25.01,14.19,46.66,1023.56,2047.16,3343.01,2949.32,3421.04,600.14,608.94,4.61,0000 0000 0000 0000 000000
2018-09-12 00:48:40,-0.00,0.05,0.00,18.79,22.19,25.05,14.21,46.64,1023.69,2047.06,3342.98,2949.02,3421.00,599.97,608.72,4.66,0000 0000 0000 0000 000000
2018-09-12 00:53:41,0.01,0.05,0.00,18.80,22.21,25.02,14.24,46.58,1023.79,2047.03,3342.60,2949.00,3420.96,599.71,608.53,4.71,0000 0000 0000 0000 000000
2018-09-12 00:58:42,0.01,0.05,0.00,18.83,22.23,25.05,14.24,46.55,1023.72,2047.00,3342.07,2948.98,3420.37,600.20,608.98,4.76,0000 0000 0000 0000 000000
2018-09-12 01:03:43,0.01,0.05,0.00,18.86,22.25,25.06,14.22,46.51,1023.57,2047.00,3341.98,2948.71,3420.01,599.94,608.53,4.81,0000 0000 0000 0000 000000
2018-09-12 01:08:45,0.01,0.05,0.00,18.87,22.28,25.09,14.27,46.58,1023.69,2047.00,3341.92,2948.16,3419.98,600.24,608.90,4.86,0000 0000 0000 0000 000000
2018-09-12 01:13:46,0.02,0.05,0.00,18.91,22.30,25.14,14.18,46.58,1023.83,2047.00,3341.35,2948.02,3419.66,600.21,608.66,4.91,0000 0000 0000 0000 000000
2018-09-12 01:18:47,0.00,0.05,0.00,18.95,22.33,25.12,14.19,46.63,1023.89,2047.00,3341.01,2948.00,3419.08,599.86,608.50,4.96,0000 0000 0000 0000 000000
2018-09-12 01:23:49,0.00,0.05,0.00,18.97,22.36,25.16,14.18,46.48,1023.91,2047.00,3340.92,2947.87,3418.99,599.96,608.58,5.01,0000 0000 0000 0000 000000
2018-09-12 01:28:50,0.04,0.05,0.00,18.99,22.38,25.16,14.18,46.54,1023.92,2047.00,3340.23,2947.23,3418.60,600.25,608.85,5.06,0000 0000 0000 0000 000000
2018-09-12 01:33:51,0.00,0.05,0.00,19.02,22.40,25.18,14.17,46.48,1023.94,2046.98,3340.00,2947.01,3418.02,600.10,608.49,5.11,0000 0000 0000 0000 000000
2018-09-12 01:38:52,0.00,0.05,0.00,19.05,22.42,25.17,14.26,46.59,1023.93,2046.97,3339.97,2947.00,3418.00,599.94,608.39,5.16,0000 0000 0000 0000 000000
2018-09-12 01:43:54,0.00,0.05,0.00,19.08,22.44,25.17,14.25,46.54,1023.89,2046.90,3339.52,2946.98,3417.82,600.24,608.60,5.21,0000 0000 0000 0000 000000
2018-09-12 01:48:55,-0.00,0.05,0.00,19.11,22.47,25.21,14.20,46.54,1023.84,2046.66,3339.03,2946.75,3417.11,599.94,608.26,5.26,0000 0000 0000 0000 000000
2018-09-12 01:53:57,-0.02,0.05,0.00,19.13,22.49,25.21,14.14,46.49,1023.75,2046.27,3338.98,2946.15,3416.99,599.78,607.84,5.31,0000 0000 0000 0000 000000
2018-09-12 01:58:58,0.03,0.05,0.00,19.16,22.51,25.22,14.17,46.33,1023.61,2046.05,3338.14,2945.90,3416.18,599.87,607.81,5.36,0000 0000 0000 0000 000000
2018-09-12 02:03:59,0.01,0.05,0.00,19.18,22.53,25.23,14.14,46.28,1023.73,2046.01,3338.00,2945.49,3416.00,600.03,608.08,5.41,0000 0000 0000 0000 000000
2018-09-12 02:09:01,0.02,0.06,0.00,19.21,22.56,25.26,14.18,46.45,1023.79,2046.01,3337.54,2945.03,3415.95,600.10,608.14,5.46,0000 0000 0000 0000 000000
2018-09-12 02:14:02,0.01,0.06,0.00,19.25,22.58,25.28,14.19,46.46,1023.76,2046.00,3337.03,2945.00,3415.20,600.04,607.92,5.51,0000 0000 0000 0000 000000
2018-09-12 02:19:03,0.00,0.06,0.00,19.29,22.61,25.30,14.14,46.41,1023.74,2045.99,3336.96,2944.90,3415.00,600.00,607.83,5.56,0000 0000 0000 0000 000000
2018-09-12 02:24:05,0.02,0.06,0.00,19.32,22.63,25.32,14.16,46.40,1023.69,2045.99,3336.73,2944.39,3414.91,599.87,607.54,5.61,0000 0000 0000 0000 000000
2018-09-12 02:29:06,0.02,0.06,0.00,19.35,22.66,25.33,14.19,46.35,1023.76,2045.98,3336.05,2944.02,3414.16,600.46,608.29,5.66,0000 0000 0000 0000 000000
2018-09-12 02:34:07,-0.01,0.06,0.00,19.38,22.68,25.37,14.17,46.48,1023.81,2045.91,3335.99,2944.00,3414.00,599.47,607.12,5.71,0000 0000 0000 0000 000000
2018-09-12 02:39:09,-0.02,0.06,0.00,19.43,22.71,25.40,14.14,46.48,1023.88,2045.49,3335.65,2943.98,3413.86,599.37,607.04,5.76,0000 0000 0000 0000 000000
2018-09-12 02:44:10,0.00,0.06,0.00,19.45,22.74,25.41,14.11,46.52,1023.90,2045.14,3335.02,2943.48,3413.11,599.33,606.91,5.81,0000 0000 0000 0000 000000
2018-09-12 02:49:11,0.01,0.06,0.00,19.48,22.76,25.45,14.23,46.51,1023.92,2045.04,3334.97,2943.04,3413.00,600.18,607.62,5.86,0000 0000 0000 0000 000000
2018-09-12 02:54:12,0.01,0.06,0.00,19.53,22.79,25.46,14.17,46.44,1023.91,2045.01,3334.46,2943.00,3412.79,599.95,607.46,5.91,0000 0000 0000 0000 000000
2018-09-12 02:59:14,0.01,0.06,0.00,19.56,22.82,25.50,14.15,46.44,1023.90,2045.00,3334.03,2942.94,3412.12,599.97,607.33,5.96,0000 0000 0000 0000 000000
2018-09-12 03:04:15,0.02,0.06,0.00,19.60,22.85,25.52,14.12,46.46,1023.92,2045.00,3333.95,2942.31,3412.00,599.85,607.16,6.01,0000 0000 0000 0000 000000
2018-09-12 03:09:17,0.02,0.06,0.00,19.63,22.88,25.56,14.12,46.39,1023.90,2044.99,3333.25,2942.01,3411.52,599.50,606.63,6.06,0000 0000 0000 0000 000000
2018-09-12 03:14:18,0.00,0.06,0.00,19.67,22.91,25.58,14.23,46.40,1023.91,2044.95,3333.01,2941.98,3411.01,600.54,607.64,6.11,0000 0000 0000 0000 000000
2018-09-12 03:19:19,-0.01,0.06,0.00,19.71,22.94,25.63,14.14,46.42,1023.93,2044.76,3332.89,2941.86,3410.98,600.09,607.29,6.16,0000 0000 0000 0000 000000
2018-09-12 03:24:21,0.02,0.06,0.00,19.74,22.97,25.63,14.19,46.41,1023.94,2044.54,3332.17,2941.13,3410.60,600.36,607.37,6.21,0000 0000 0000 0000 000000
2018-09-12 03:29:22,-0.03,0.06,0.00,19.78,23.00,25.66,14.19,46.38,1023.94,2044.12,3332.00,2941.01,3410.07,600.65,607.48,6.26,0000 0000 0000 0000 000000
2018-09-12 03:34:23,-0.00,0.06,0.00,19.83,23.03,25.70,14.10,46.34,1023.94,2044.05,3331.93,2940.99,3409.97,599.72,606.58,6.31,0000 0000 0000 0000 000000
2018-09-12 03:39:24,0.02,0.06,0.00,19.86,23.06,25.74,14.12,46.42,1023.94,2044.00,3331.47,2940.86,3409.68,599.86,606.57,6.36,0000 0000 0000 0000 000000
2018-09-12 03:44:26,0.03,0.06,0.00,19.91,23.09,25.77,14.13,46.45,1023.94,2044.00,3331.02,2940.19,3409.04,599.70,606.35,6.41,0000 0000 0000 0000 000000
2018-09-12 03:49:27,0.00,0.06,0.00,19.96,23.13,25.79,14.06,46.37,1023.94,2043.99,3330.82,2940.00,3409.00,599.79,606.37,6.46,0000 0000 0000 0000 000000
2018-09-12 03:54:28,0.02,0.06,0.00,20.00,23.15,25.82,14.16,46.42,1023.94,2043.99,3330.21,2939.97,3408.58,600.18,606.66,6.51,0000 0000 0000 0000 000000
2018-09-12 03:59:29,0.02,0.07,0.00,20.04,23.19,25.87,14.10,46.28,1023.94,2043.95,3329.99,2939.42,3408.02,599.92,606.38,6.56,0000 0000 0000 0000 000000
2018-09-12 04:04:31,-0.04,0.07,0.00,20.08,23.22,25.90,14.20,46.48,1023.94,2043.52,3329.71,2939.03,3407.88,600.28,606.54,6.61,0000 0000 0000 0000 000000
2018-09-12 04:09:32,-0.00,0.06,0.00,20.10,23.26,25.93,14.16,46.36,1023.94,2043.09,3329.03,2938.98,3407.11,600.23,606.50,6.66,0000 0000 0000 0000 000000
2018-09-12 04:14:33,0.01,0.06,0.00,20.13,23.29,25.96,14.10,46.44,1023.94,2043.01,3328.96,2938.53,3406.99,599.60,605.89,6.71,0000 0000 0000 0000 000000
2018-09-12 04:19:34,0.03,0.07,0.00,20.16,23.33,25.99,14.21,46.40,1023.94,2043.00,3328.27,2938.06,3406.47,600.18,606.32,6.76,0000 0000 0000 0000 000000
2018-09-12 04:24:35,0.00,0.07,0.00,20.18,23.36,26.03,14.15,46.32,1023.94,2042.99,3328.00,2938.00,3406.02,600.27,606.42,6.82,0000 0000 0000 0000 000000
2018-09-12 04:29:36,-0.00,0.07,0.00,20.21,23.38,26.05,14.16,46.27,1023.94,2042.93,3327.94,2937.94,3405.93,599.94,605.92,6.87,0000 0000 0000 0000 000000
2018-09-12 04:34:37,0.04,0.07,0.00,20.24,23.42,26.08,14.07,46.29,1023.94,2042.81,3327.24,2937.28,3405.24,599.43,605.57,6.92,0000 0000 0000 0000 000000
2018-09-12 04:39:39,-0.06,0.07,0.00,20.27,23.46,26.14,14.14,46.34,1023.94,2042.21,3327.00,2937.00,3405.00,600.03,605.94,6.97,0000 0000 0000 0000 000000
2018-09-12 04:44:40,0.00,0.07,0.00,20.30,23.49,26.17,14.09,46.32,1023.94,2042.08,3326.95,2936.99,3404.81,600.08,605.97,7.02,0000 0000 0000 0000 000000
2018-09-12 04:49:41,0.03,0.07,0.00,20.33,23.52,26.19,14.13,46.33,1023.94,2042.02,3326.27,2936.65,3404.09,600.16,605.96,7.07,0000 0000 0000 0000 000000
2018-09-12 04:54:43,0.01,0.07,0.00,20.35,23.56,26.22,14.04,46.27,1023.94,2042.00,3326.00,2936.06,3403.97,600.08,605.79,7.12,0000 0000 0000 0000 000000
2018-09-12 04:59:44,0.02,0.07,0.00,20.39,23.59,26.25,14.10,46.33,1023.94,2041.99,3325.67,2936.00,3403.19,599.96,605.63,7.17,0000 0000 0000 0000 000000
2018-09-12 05:04:45,0.01,0.07,0.00,20.42,23.63,26.29,14.18,46.34,1023.94,2041.92,3325.04,2935.76,3402.99,600.05,605.61,7.22,0000 0000 0000 0000 000000
2018-09-12 05:09:46,-0.02,0.07,0.00,20.46,23.66,26.33,14.11,46.31,1023.94,2041.39,3324.82,2935.07,3402.40,599.52,605.09,7.27,0000 0000 0000 0000 000000
2018-09-12 05:14:48,0.00,0.07,0.00,20.49,23.70,26.35,14.08,46.33,1023.94,2041.10,3324.06,2934.97,3402.01,599.34,604.66,7.32,0000 0000 0000 0000 000000
2018-09-12 05:19:49,0.02,0.07,0.00,20.52,23.73,26.39,14.07,46.36,1023.95,2041.01,3323.95,2934.47,3401.67,600.01,605.46,7.37,0000 0000 0000 0000 000000
2018-09-12 05:24:50,0.02,0.07,0.00,20.54,23.77,26.43,14.08,46.30,1023.97,2041.00,3323.14,2934.01,3401.03,600.03,605.44,7.42,0000 0000 0000 0000 000000
2018-09-12 05:29:51,0.00,0.07,0.00,20.58,23.81,26.45,14.07,46.41,1023.95,2040.99,3323.00,2933.98,3400.84,600.07,605.34,7.47,0000 0000 0000 0000 000000
2018-09-12 05:34:53,0.04,0.07,0.00,20.61,23.84,26.50,14.08,46.30,1023.96,2040.96,3322.51,2933.51,3400.16,599.65,604.64,7.52,0000 0000 0000 0000 000000
2018-09-12 05:39:54,0.01,0.07,0.00,20.64,23.88,26.53,14.08,46.36,1023.97,2040.96,3322.00,2933.02,3399.97,600.02,605.13,7.57,0000 0000 0000 0000 000000
2018-09-12 05:44:56,-0.02,0.07,0.00,20.67,23.91,26.58,14.14,46.44,1023.96,2040.58,3321.56,2932.97,3399.44,600.06,605.13,7.62,0000 0000 0000 0000 000000
2018-09-12 05:49:57,0.00,0.07,0.00,20.70,23.95,26.61,14.09,46.44,1023.97,2040.11,3321.02,2932.36,3398.95,599.85,604.80,7.67,0000 0000 0000 0000 000000
2018-09-12 05:54:59,0.01,0.07,0.00,20.73,23.98,26.63,14.10,46.43,1023.97,2040.03,3320.42,2931.99,3398.20,600.04,605.02,7.72,0000 0000 0000 0000 000000
2018-09-12 06:00:00,0.02,0.07,0.00,20.77,24.02,26.67,14.11,46.46,1023.97,2040.00,3320.03,2931.50,3397.95,599.92,604.82,7.77,0000 0000 0000 0000 000000
2018-09-12 06:05:02,0.02,0.08,0.00,20.79,24.05,26.70,14.04,46.41,1023.96,2039.99,3319.64,2931.02,3397.27,599.47,604.25,7.82,0000 0000 0000 0000 000000
2018-09-12 06:10:03,0.00,0.08,0.00,20.83,24.08,26.74,14.12,46.38,1023.96,2039.98,3319.03,2930.99,3396.99,600.15,604.91,7.87,0000 0000 0000 0000 000000
2018-09-12 06:15:04,0.01,0.08,0.00,20.85,24.12,26.74,14.09,46.44,1023.94,2039.82,3318.83,2930.45,3396.54,600.09,604.82,7.92,0000 0000 0000 0000 000000
2018-09-12 06:20:05,-0.02,0.08,0.00,20.88,24.15,26.79,14.06,46.42,1023.94,2039.31,3318.16,2930.03,3396.01,599.91,604.48,7.97,0000 0000 0000 0000 000000
2018-09-12 06:25:06,-0.01,0.08,0.00,20.92,24.18,26.83,14.08,46.33,1023.94,2039.05,3318.00,2929.99,3395.89,600.51,605.07,8.02,0000 0000 0000 0000 000000
2018-09-12 06:30:07,0.03,0.08,0.00,20.96,24.22,26.84,14.10,46.38,1023.94,2039.00,3317.49,2929.77,3395.12,600.48,605.03,8.07,0000 0000 0000 0000 000000
2018-09-12 06:35:09,0.01,0.08,0.00,20.99,24.25,26.88,14.08,46.42,1023.94,2039.00,3317.01,2929.10,3394.99,599.84,604.28,8.12,0000 0000 0000 0000 000000
2018-09-12 06:40:10,0.02,0.08,0.00,21.03,24.28,26.91,14.06,46.42,1023.94,2039.00,3316.28,2928.98,3394.43,600.12,604.47,8.17,0000 0000 0000 0000 000000
2018-09-12 06:45:12,0.02,0.08,0.00,21.06,24.32,26.94,14.06,46.34,1023.94,2038.98,3316.00,2928.41,3394.00,599.90,604.11,8.22,0000 0000 0000 0000 000000
2018-09-12 06:50:13,0.01,0.08,0.00,21.09,24.35,26.99,14.11,46.33,1023.94,2038.93,3315.64,2928.01,3393.65,600.58,604.67,8.27,0000 0000 0000 0000 000000
2018-09-12 06:55:14,-0.03,0.08,0.00,21.13,24.38,27.03,14.06,46.42,1023.94,2038.50,3315.05,2928.00,3393.03,599.80,603.88,8.32,0000 0000 0000 0000 000000
2018-09-12 07:00:15,0.01,0.08,0.00,21.16,24.41,27.05,14.01,46.27,1023.95,2038.37,3314.66,2927.57,3392.88,599.84,603.90,8.37,0000 0000 0000 0000 000000
2018-09-12 07:05:16,0.01,0.08,0.00,21.20,24.45,27.08,14.02,46.27,1023.95,2038.05,3314.02,2927.02,3392.08,599.71,603.70,8.42,0000 0000 0000 0000 000000
2018-09-12 07:10:18,0.01,0.08,0.00,21.24,24.48,27.12,14.08,46.26,1023.95,2038.00,3313.55,2926.89,3391.97,600.24,604.18,8.47,0000 0000 0000 0000 000000
2018-09-12 07:15:19,0.03,0.08,0.00,21.28,24.51,27.15,14.02,46.26,1023.95,2038.00,3313.01,2926.14,3391.22,600.27,604.11,8.52,0000 0000 0000 0000 000000
2018-09-12 07:20:21,0.00,0.08,0.00,21.31,24.55,27.17,14.08,46.36,1023.96,2038.00,3312.86,2926.00,3391.00,599.93,603.66,8.57,0000 0000 0000 0000 000000
2018-09-12 07:25:22,0.02,0.09,0.00,21.35,24.58,27.20,14.02,46.24,1023.97,2037.98,3312.07,2925.82,3390.75,599.57,603.15,8.62,0000 0000 0000 0000 000000
2018-09-12 07:30:23,0.02,0.09,0.00,21.40,24.61,27.23,13.98,46.36,1023.98,2037.92,3311.87,2925.11,3390.05,599.50,603.20,8.67,0000 0000 0000 0000 000000
2018-09-12 07:35:25,0.00,0.09,0.00,21.45,24.65,27.25,14.08,46.23,1023.98,2037.81,3311.09,2924.99,3389.95,600.12,603.64,8.72,0000 0000 0000 0000 000000
2018-09-12 07:40:26,-0.03,0.09,0.00,21.48,24.68,27.29,14.04,46.37,1023.97,2037.25,3310.86,2924.66,3389.20,599.88,603.31,8.77,0000 0000 0000 0000 000000
2018-09-12 07:45:27,0.01,0.09,0.00,21.51,24.71,27.32,14.07,46.25,1023.99,2037.01,3310.08,2924.03,3388.98,600.00,603.44,8.82,0000 0000 0000 0000 000000
2018-09-12 07:50:28,0.01,0.09,0.00,21.56,24.75,27.36,14.08,46.23,1024.05,2037.00,3309.97,2924.00,3388.40,599.68,602.96,8.87,0000 0000 0000 0000 000000
2018-09-12 07:55:30,0.03,0.09,0.00,21.59,24.79,27.38,13.99,46.32,1024.21,2037.00,3309.37,2923.66,3388.00,599.55,602.96,8.92,0000 0000 0000 0000 000000
2018-09-12 08:00:31,0.02,0.09,0.00,21.63,24.82,27.39,14.09,46.26,1024.32,2036.98,3308.94,2923.03,3387.44,600.16,603.50,8.97,0000 0000 0000 0000 000000
2018-09-12 08:05:32,0.01,0.09,0.00,21.68,24.86,27.42,14.07,46.23,1024.39,2036.95,3308.15,2922.96,3387.00,600.13,603.41,9.02,0000 0000 0000 0000 000000
2018-09-12 08:10:34,-0.00,0.09,0.00,21.74,24.89,27.45,14.05,46.34,1024.41,2036.69,3307.99,2922.26,3386.64,599.78,602.82,9.07,0000 0000 0000 0000 000000
2018-09-12 08:15:35,-0.02,0.09,0.00,21.80,24.93,27.50,14.05,46.26,1024.42,2036.25,3307.29,2922.01,3386.03,599.98,602.88,9.12,0000 0000 0000 0000 000000
2018-09-12 08:20:36,0.00,0.09,0.00,21.87,24.96,27.54,14.03,46.24,1024.42,2036.04,3306.99,2921.86,3385.81,600.27,603.23,9.18,0000 0000 0000 0000 000000
2018-09-12 08:25:37,0.04,0.09,0.00,21.94,25.00,27.62,14.06,46.11,1024.43,2036.00,3306.34,2921.09,3385.05,600.10,602.86,9.23,0000 0000 0000 0000 000000
2018-09-12 08:30:39,0.01,0.09,0.00,22.00,25.04,27.70,14.07,46.30,1024.42,2036.00,3305.99,2920.99,3384.78,600.06,602.64,9.28,0000 0000 0000 0000 000000
2018-09-12 08:35:40,0.03,0.09,0.00,22.06,25.08,27.74,14.04,46.22,1024.42,2035.99,3305.49,2920.73,3384.08,599.91,602.52,9.33,0000 0000 0000 0000 000000
2018-09-12 08:40:41,0.03,0.10,0.00,22.09,25.12,27.84,14.07,46.30,1024.43,2035.97,3304.60,2920.05,3383.71,600.31,602.77,9.38,0000 0000 0000 0000 000000
2018-09-12 08:45:42,-0.02,0.10,0.00,22.12,25.16,27.86,13.99,46.17,1024.43,2035.67,3304.01,2919.75,3383.03,599.87,602.40,9.43,0000 0000 0000 0000 000000
2018-09-12 08:50:43,0.00,0.10,0.00,22.14,25.19,27.92,13.97,46.11,1024.43,2035.17,3303.38,2919.05,3382.62,599.85,602.21,9.48,0000 0000 0000 0000 000000
2018-09-12 08:55:45,0.00,0.10,0.00,22.16,25.23,27.91,14.00,46.04,1024.43,2035.02,3302.98,2918.93,3382.01,599.61,601.80,9.53,0000 0000 0000 0000 000000
2018-09-12 09:00:45,0.04,0.10,0.00,22.17,25.27,27.94,14.05,46.14,1024.43,2035.00,3302.26,2918.17,3381.61,600.58,602.82,9.58,0000 0000 0000 0000 000000
2018-09-12 09:05:47,0.01,0.10,0.00,22.17,25.31,27.97,14.08,46.17,1024.43,2034.99,3302.00,2918.00,3381.02,599.93,602.23,9.63,0000 0000 0000 0000 000000
2018-09-12 09:10:48,-0.01,0.10,0.00,22.17,25.34,28.02,13.99,46.26,1024.43,2034.85,3301.63,2917.96,3380.81,600.00,602.28,9.68,0000 0000 0000 0000 000000
2018-09-12 09:15:49,-0.00,0.10,0.00,22.18,25.37,28.02,14.03,46.18,1024.44,2034.42,3301.02,2917.32,3380.10,599.78,602.11,9.73,0000 0000 0000 0000 000000
2018-09-12 09:20:50,0.00,0.10,0.00,22.19,25.40,28.07,13.93,46.14,1024.43,2034.04,3300.60,2917.00,3379.88,599.59,601.89,9.78,0000 0000 0000 0000 000000
2018-09-12 09:25:51,0.08,0.10,0.00,22.20,25.43,28.09,14.06,46.15,1024.44,2034.00,3299.13,2916.48,3378.67,599.94,602.21,9.83,0000 0000 0000 0000 000000
2018-09-12 09:30:53,0.10,0.11,0.00,22.21,25.46,28.12,14.05,46.20,1024.45,2034.00,3295.99,2914.46,3376.96,599.71,601.91,9.88,0000 0000 0000 0000 000000
2018-09-12 09:35:55,0.02,0.11,0.00,22.22,25.48,28.14,14.06,46.12,1024.46,2033.99,3295.11,2914.01,3376.13,600.14,602.43,9.93,0000 0000 0000 0000 000000
2018-09-12 09:40:56,0.00,0.11,0.00,22.23,25.51,28.16,13.95,46.20,1024.46,2033.97,3294.92,2913.99,3376.00,599.97,602.11,9.98,0000 0000 0000 0000 000000
2018-09-12 09:45:57,0.02,0.11,0.00,22.25,25.53,28.17,14.06,46.06,1024.52,2033.80,3294.13,2913.37,3375.51,599.78,602.09,10.03,0000 0000 0000 0000 000000
2018-09-12 09:50:59,-0.02,0.11,0.00,22.26,25.56,28.21,14.02,46.08,1024.74,2033.28,3293.55,2913.01,3374.99,600.07,602.32,10.08,0000 0000 0000 0000 000000
2018-09-12 09:56:00,0.02,0.11,0.00,22.27,25.58,28.24,14.03,46.10,1024.83,2033.05,3292.91,2912.64,3374.38,599.95,602.31,10.13,0000 0000 0000 0000 000000
2018-09-12 10:01:01,0.02,0.11,0.00,22.28,25.60,28.26,13.97,46.02,1024.85,2033.01,3292.07,2912.02,3373.97,599.33,601.83,10.18,0000 0000 0000 0000 000000
2018-09-12 10:06:03,0.02,0.11,0.00,22.29,25.62,28.31,13.99,46.01,1024.89,2033.01,3291.52,2911.97,3373.41,599.86,602.25,10.23,0000 0000 0000 0000 000000
2018-09-12 10:11:04,0.02,0.11,0.00,22.27,25.64,28.32,13.99,46.06,1024.90,2033.00,3290.99,2911.32,3373.00,599.64,602.01,10.28,0000 0000 0000 0000 000000
2018-09-12 10:16:06,0.02,0.11,0.00,22.27,25.66,28.35,14.04,46.07,1024.88,2033.00,3290.43,2911.01,3372.67,600.01,602.32,10.33,0000 0000 0000 0000 000000
2018-09-12 10:21:07,0.01,0.12,0.00,22.27,25.67,28.37,14.06,46.11,1024.89,2032.99,3290.01,2910.98,3372.05,599.99,602.43,10.38,0000 0000 0000 0000 000000
2018-09-12 10:26:08,0.02,0.12,0.00,22.24,25.70,28.40,14.09,46.12,1024.92,2032.97,3289.77,2910.45,3371.98,600.44,602.78,10.43,0000 0000 0000 0000 000000
2018-09-12 10:31:09,0.02,0.12,0.00,22.24,25.70,28.41,14.10,46.11,1024.92,2032.91,3289.07,2910.03,3371.61,600.04,602.51,10.48,0000 0000 0000 0000 000000
2018-09-12 10:36:10,-0.00,0.12,0.00,22.24,25.72,28.44,14.07,46.06,1024.92,2032.86,3289.00,2910.00,3371.08,600.24,602.70,10.53,0000 0000 0000 0000 000000
2018-09-12 10:41:11,-0.01,0.12,0.00,22.24,25.72,28.50,14.02,45.99,1024.93,2032.75,3288.83,2909.99,3371.00,599.96,602.41,10.58,0000 0000 0000 0000 000000
2018-09-12 10:46:13,0.02,0.12,0.00,22.22,25.73,28.52,14.06,45.98,1024.93,2032.68,3288.10,2909.96,3370.98,600.11,602.61,10.63,0000 0000 0000 0000 000000
2018-09-12 10:51:14,-0.01,0.12,0.00,22.22,25.75,28.61,14.14,46.17,1024.94,2032.55,3288.00,2909.68,3370.74,600.36,602.80,10.68,0000 0000 0000 0000 000000
2018-09-12 10:56:15,-0.01,0.12,0.00,22.21,25.75,28.66,13.98,46.08,1024.94,2032.17,3287.94,2909.08,3370.07,599.70,602.14,10.73,0000 0000 0000 0000 000000
2018-09-12 11:01:17,0.01,0.12,0.00,22.20,25.75,28.66,14.06,46.11,1025.02,2032.05,3287.27,2909.01,3370.00,599.69,602.37,10.78,0000 0000 0000 0000 000000
2018-09-12 11:06:18,-0.00,0.12,0.00,22.19,25.75,28.68,14.03,46.11,1025.23,2032.03,3287.01,2908.99,3369.98,599.99,602.73,10.83,0000 0000 0000 0000 000000
2018-09-12 11:11:20,0.00,0.12,0.00,22.19,25.77,28.72,14.12,46.17,1025.32,2032.04,3286.99,2908.98,3369.84,599.97,602.63,10.88,0000 0000 0000 0000 000000
2018-09-12 11:16:21,0.01,0.12,0.00,22.18,25.77,28.71,14.06,46.20,1025.39,2032.03,3286.97,2908.97,3369.32,599.61,602.56,10.93,0000 0000 0000 0000 000000
2018-09-12 11:21:22,0.02,0.12,0.00,22.17,25.77,28.76,14.06,46.23,1025.40,2032.02,3286.47,2908.78,3369.05,599.91,602.85,10.98,0000 0000 0000 0000 000000
2018-09-12 11:26:23,0.01,0.12,0.00,22.15,25.77,28.73,14.07,46.26,1025.40,2032.01,3286.01,2908.22,3369.00,599.69,602.44,11.03,0000 0000 0000 0000 000000
2018-09-12 11:31:25,0.01,0.12,0.00,22.13,25.77,28.75,14.10,46.17,1025.40,2032.01,3285.79,2908.01,3368.66,600.08,603.02,11.08,0000 0000 0000 0000 000000
2018-09-12 11:36:26,0.02,0.12,0.00,22.14,25.77,28.75,14.02,46.03,1025.40,2032.01,3285.05,2907.93,3368.02,599.70,602.59,11.13,0000 0000 0000 0000 000000
2018-09-12 11:41:27,0.03,0.12,0.00,22.12,25.77,28.79,14.14,46.11,1025.40,2032.02,3284.81,2907.17,3367.90,600.59,603.39,11.18,0000 0000 0000 0000 000000
2018-09-12 11:46:28,0.02,0.13,0.00,22.10,25.77,28.81,14.08,46.23,1025.39,2032.03,3284.06,2906.99,3367.14,599.85,602.78,11.23,0000 0000 0000 0000 000000
2018-09-12 11:51:30,0.02,0.13,0.00,22.08,25.76,28.80,14.10,46.13,1025.39,2032.02,3283.69,2906.77,3366.95,600.18,603.25,11.28,0000 0000 0000 0000 000000
2018-09-12 11:56:31,0.03,0.13,0.00,22.06,25.75,28.79,14.12,46.17,1025.39,2032.01,3283.05,2906.13,3366.42,600.47,603.44,11.33,0000 0000 0000 0000 000000
2018-09-12 12:01:32,0.00,0.13,0.00,22.06,25.75,28.78,14.09,46.03,1025.40,2032.01,3282.99,2906.01,3366.02,599.76,602.73,11.38,0000 0000 0000 0000 000000
2018-09-12 12:06:33,0.01,0.13,0.00,22.05,25.75,28.79,14.10,45.98,1025.40,2032.01,3282.40,2906.00,3365.98,599.66,602.83,11.43,0000 0000 0000 0000 000000
2018-09-12 12:11:34,0.01,0.13,0.00,22.03,25.75,28.83,14.12,46.22,1025.40,2032.01,3282.03,2905.95,3365.80,600.12,603.35,11.48,0000 0000 0000 0000 000000
2018-09-12 12:16:35,0.02,0.13,0.00,22.02,25.75,28.78,14.14,46.08,1025.40,2032.01,3281.94,2905.55,3365.09,600.07,603.34,11.54,0000 0000 0000 0000 000000
2018-09-12 12:21:37,0.02,0.13,0.00,22.00,25.74,28.79,14.08,46.13,1025.40,2032.01,3281.22,2905.03,3365.00,599.83,603.09,11.59,0000 0000 0000 0000 000000
2018-09-12 12:26:38,0.00,0.13,0.00,21.99,25.72,28.79,14.15,46.15,1025.40,2032.01,3281.01,2905.01,3364.99,600.31,603.55,11.64,0000 0000 0000 0000 000000
2018-09-12 12:31:39,0.00,0.13,0.00,21.97,25.72,28.78,14.08,46.06,1025.40,2032.04,3280.99,2905.00,3364.96,600.29,603.60,11.69,0000 0000 0000 0000 000000
2018-09-12 12:36:40,0.01,0.13,0.00,21.95,25.72,28.76,14.03,46.06,1025.40,2032.02,3280.85,2905.00,3364.61,599.70,602.81,11.74,0000 0000 0000 0000 000000
2018-09-12 12:41:42,0.02,0.13,0.00,21.94,25.71,28.78,14.14,46.18,1025.40,2032.04,3280.12,2904.98,3364.05,600.22,603.40,11.79,0000 0000 0000 0000 000000
2018-09-12 12:46:43,0.00,0.13,0.00,21.92,25.70,28.77,14.14,46.15,1025.40,2032.03,3280.00,2904.89,3364.00,600.40,603.74,11.84,0000 0000 0000 0000 000000
2018-09-12 12:51:44,0.02,0.13,0.00,21.91,25.70,28.71,14.11,46.13,1025.40,2032.03,3279.96,2904.31,3364.00,599.92,603.47,11.89,0000 0000 0000 0000 000000
2018-09-12 12:56:46,0.02,0.14,0.00,21.89,25.68,28.72,14.03,46.08,1025.42,2032.06,3279.28,2904.01,3363.73,599.77,603.16,11.94,0000 0000 0000 0000 000000